Погода в Скворцово

Россия / Хабаровский край     48°29′09″N   135°14′17″E
темп.,
°C
ветер,
м/с
пор.,
м/с
влажн.,
%
обл.,
%
осадки,
мм/ч
давл.,
гПа
погр.,
м
25 февраля, чт
чт2501:00−24ююз23880 0.0 102620
04:00−25ююз22920 0.0 102520
07:00−26ююз22930 0.0 102620
10:00−22юз12900 0.0 1025112
13:00−17з128311 0.0 1024382
16:00−16зсз238836 0.0 1022328
19:00−21з239558 0.0 102426
22:00−22ююз229356 0.0 102420
26 февраля, пт
пт2601:00−24ю129220 0.0 102520
04:00−23ю119160 0.0 102520
07:00−24юз129496 0.0 102620
10:00−21юз239289 0.0 1027163
13:00−17з358891 0.0 1028455
16:00−16з358984 0.0 1028402
19:00−20юз339323 0.0 103122
22:00−21ююз239112 0.0 103320
27 февраля, сб
сб2701:00−22ююз23890 0.0 103420
04:00−23ююз22910 0.0 103620
07:00−23ю23930 0.0 103624
10:00−19ю239133 0.0 1036130
13:00−13зюз1280100 0.0 1034386
16:00−11юв2480100 0.0 1030456
19:00−12в2389100 0.0 102830
22:00−11ююв2391100 0.0 102566
28 февраля, вс
вс2801:00−13ююв2286100 0.0 102024
04:00−7ююз31694100 0.8 1018695
07:00−2юз71596100 2.3 1016895
10:00−4з61195100 3.8 1015533
13:00−7з71189100 0.3 1015449
16:00−6з61083100 0.3 1017760
19:00−10зюз71381100 0.0 1020390
22:00−15зюз6148079 0.0 1023418
1 марта, пн
пн101:00−17з6158116 0.0 1024410
04:00−20зюз612848 0.0 1026248
07:00−20зюз714850 0.0 1027303
10:00−18зюз814820 0.0 1028651
13:00−16з913720 0.0 1028910
16:00−14з914650 0.0 10291401
19:00−16з614740 0.0 1030356
22:00−19зюз512804 0.0 1032272